Stations météo

Publicité
Aurillac, France (7549): Température de l'air & dewpoint: 20.03.2017 09:00:00 - 26.03.2017 09:00:00 (CEST)Aurillac, France (7549): Température de l'air 5cm: 20.03.2017 09:00:00 - 26.03.2017 09:00:00 (CEST)Aurillac, France (7549): Température de l'air -20cm & Température de l'air -100cm: 20.03.2017 09:00:00 - 26.03.2017 09:00:00 (CEST)Aurillac, France (7549): Vitesse du vent & gusts: 20.03.2017 09:00:00 - 26.03.2017 09:00:00 (CEST)Aurillac, France (7549): Direction du vent: 20.03.2017 09:00:00 - 26.03.2017 09:00:00 (CEST)Aurillac, France (7549): reduced air pressure: 20.03.2017 09:00:00 - 26.03.2017 09:00:00 (CEST)Aurillac, France (7549): visibility: 20.03.2017 09:00:00 - 26.03.2017 09:00:00 (CEST)Aurillac, France (7549): Ensoleillement: 20.03.2017 09:00:00 - 26.03.2017 09:00:00 (CEST)Aurillac, France (7549): Quantités de précipitations: 20.03.2017 09:00:00 - 26.03.2017 09:00:00 (CEST)
Date & Time tt [°C] td [°C] tt 5cm [°C] tt -20cm [°C] tt -100cm [°C] ff [km/h] ff [knt] fx [km/h] fx [knt] dd ppp [hPa] vv [km] sd [min] rr [mm]
26.03.2017 09:00:00 5,8 1,1 3,1 8,1 9,0 16 9 29 16 E 1018,4 60 60 0,0
26.03.2017 08:00:00 4,0 0,5 1,5 8,1 9,0 14 8 22 12 E 1019,0 60 5 0,0
26.03.2017 07:00:00 3,3 0,0 0,7 8,2 9,0 11 6 17 9 ESE 1019,1 60 0 0,0
26.03.2017 06:00:00 4,5 -0,1 1,7 8,2 9,0 12 6 20 11 E 1018,4 60 0 0,0
26.03.2017 05:00:00 4,2 0,0 0,9 8,3 9,0 8 4 21 11 E 1018,5 60 0 0,0
26.03.2017 04:00:00 5,0 0,4 - - - 13 7 24 13 ESE 1018,6 60 - 0,0
26.03.2017 03:00:00 5,3 0,7 3,9 8,3 9,0 14 8 19 10 ESE 1018,5 60 0 0,0
26.03.2017 02:00:00 5,8 0,9 - - - 13 7 21 11 E 1018,4 60 - -
26.03.2017 01:00:00 6,3 1,6 4,7 8,4 9,0 11 6 19 11 E 1018,0 19 0 0,0
26.03.2017 00:00:00 6,6 1,9 - - - 11 6 24 13 ESE 1017,8 19 - 0,0
25.03.2017 23:00:00 6,6 1,9 5,1 8,3 9,0 13 7 24 13 ESE 1017,3 60 0 0,0
25.03.2017 22:00:00 7,4 1,9 6,6 8,3 9,0 16 9 27 15 ESE 1016,6 60 0 0,0
25.03.2017 21:00:00 7,8 1,4 6,9 8,2 9,0 16 9 39 21 E 1016,2 60 0 0,0
25.03.2017 20:00:00 8,8 0,2 8,4 8,2 9,0 22 12 35 19 ESE 1015,3 60 28 0,0
25.03.2017 19:00:00 9,4 0,5 9,7 8,1 9,0 19 10 41 22 SE 1014,3 56 1 0,0
25.03.2017 18:00:00 10,2 -0,3 - - - 24 13 44 24 SE 1013,7 19 - 0,0
25.03.2017 17:00:00 10,7 0,1 11,7 8,0 9,0 26 14 54 29 SE 1013,7 60 10 0,0
25.03.2017 16:00:00 11,6 1,5 11,8 8,0 9,0 29 16 57 31 SE 1012,9 60 10 0,0
25.03.2017 15:00:00 10,6 2,7 - - - 31 17 65 35 ESE 1013,1 60 - 0,0
25.03.2017 14:00:00 9,0 3,6 8,4 7,9 9,0 36 19 66 35 E 1013,8 60 1 0,0
25.03.2017 13:00:00 9,1 5,1 7,1 7,9 9,0 32 17 78 42 E 1013,7 60 0 1,2
25.03.2017 12:00:00 13,1 4,8 - - - 35 19 61 33 E 1011,7 50 - 0,0
25.03.2017 11:00:00 12,7 3,9 12,5 7,9 9,0 32 17 58 31 E 1011,5 50 24 0,0
25.03.2017 10:00:00 13,0 3,6 13,1 7,9 9,0 26 14 53 29 E 1011,3 59 60 0,0
25.03.2017 09:00:00 12,0 3,2 - - - 22 12 44 24 E 1011,8 60 - 0,0
25.03.2017 08:00:00 11,0 2,3 7,4 7,9 9,0 14 8 29 15 E 1012,4 60 0 0,0
25.03.2017 07:00:00 10,2 2,5 6,9 7,9 9,0 8 4 34 19 E 1013,0 60 0 0,0
25.03.2017 06:00:00 11,1 2,6 - - - 16 9 39 21 E 1013,1 60 - 0,0
25.03.2017 05:00:00 9,8 4,0 8,0 7,9 9,0 14 8 28 15 ESE 1014,5 60 0 0,0
25.03.2017 04:00:00 9,8 5,0 7,7 7,9 9,0 16 9 32 18 E 1015,7 60 0 0,0
25.03.2017 03:00:00 9,6 5,2 7,6 7,9 9,0 14 8 30 16 E 1016,5 60 0 0,0
25.03.2017 02:00:00 10,1 5,3 8,7 7,9 9,0 22 12 41 22 ESE 1016,0 60 0 0,0
25.03.2017 01:00:00 10,2 5,2 8,6 7,9 9,0 21 12 36 20 SE 1015,3 60 0 0,0
25.03.2017 00:00:00 9,8 5,4 - - - 11 6 24 13 E 1015,8 60 - 0,0
24.03.2017 23:00:00 9,5 5,7 6,2 7,9 9,0 9 5 21 11 ESE 1016,6 60 0 0,0
24.03.2017 22:00:00 8,8 5,5 7,1 7,8 9,0 13 7 40 21 SE 1016,9 60 0 0,0
24.03.2017 21:00:00 9,7 5,5 7,2 7,8 9,0 26 14 44 24 ESE 1016,4 60 0 0,0
24.03.2017 20:00:00 9,1 4,9 7,2 7,8 9,0 19 10 37 20 E 1016,0 60 0 0,0
24.03.2017 19:00:00 8,5 5,1 7,2 7,8 9,0 16 9 29 16 E 1016,8 55 0 0,2
24.03.2017 18:00:00 7,0 6,1 - - - 8 4 15 8 NNW 1017,5 60 - 1,0
24.03.2017 17:00:00 6,5 5,8 6,5 7,7 9,0 9 5 17 9 NW 1018,5 9 0 1,6
24.03.2017 16:00:00 6,5 5,9 6,8 7,8 9,0 9 5 14 8 NW 1018,9 10 0 2,0
24.03.2017 15:00:00 6,4 5,5 6,8 7,8 9,0 2 1 8 4 NNW 1018,9 4,7 0 2,6
24.03.2017 14:00:00 6,4 5,5 6,4 7,8 9,0 6 4 9 5 WSW 1018,8 12 0 2,3
24.03.2017 13:00:00 5,7 4,5 5,8 7,8 9,0 3 2 16 8 S 1019,0 6 0 3,2
24.03.2017 12:00:00 5,8 4,4 5,3 7,8 9,0 11 6 20 11 E 1018,3 12 0 0,8
24.03.2017 11:00:00 5,1 3,8 4,4 7,8 9,0 11 6 32 18 E 1018,2 51 0 0,4
24.03.2017 10:00:00 4,9 3,4 3,6 7,8 9,0 19 10 39 21 E 1017,8 17 0 0,4
24.03.2017 09:00:00 4,6 3,1 2,8 7,9 9,0 16 9 25 14 E 1017,0 10 0 0,4
24.03.2017 08:00:00 4,1 2,6 2,6 7,9 9,0 10 6 18 10 E 1016,6 44 0 0,0
24.03.2017 07:00:00 4,5 2,4 2,6 8,0 9,0 13 7 23 12 E 1016,0 60 0 0,0
24.03.2017 06:00:00 4,4 2,3 2,4 8,0 9,0 13 7 29 15 E 1016,0 60 0 0,0
24.03.2017 05:00:00 4,0 2,2 1,8 8,1 9,0 10 5 18 10 E 1015,6 60 0 0,0
24.03.2017 04:00:00 3,4 1,6 0,8 8,1 9,0 8 5 13 7 E 1016,1 57 0 0,0
24.03.2017 03:00:00 3,1 1,3 0,6 8,2 9,0 9 5 14 7 E 1016,1 60 0 0,0
24.03.2017 02:00:00 1,8 0,8 -0,8 8,2 9,0 8 5 16 9 E 1016,7 15 0 0,0
24.03.2017 01:00:00 0,3 0,0 - - - 4 2 11 6 ESE 1016,8 12 - 0,0
24.03.2017 00:00:00 1,0 0,4 -1,7 8,3 9,0 4 2 10 5 NE 1016,4 4,1 0 0,0
23.03.2017 23:00:00 0,9 0,5 -0,7 8,4 9,0 4 2 8 5 ESE 1016,1 11 0 0,0
23.03.2017 22:00:00 1,4 1,0 -0,2 8,4 9,0 4 2 10 6 E 1015,6 10 0 0,0
23.03.2017 21:00:00 2,1 1,2 0,0 8,4 9,0 4 2 6 4 ESE 1014,9 18 0 0,0
23.03.2017 20:00:00 2,9 1,3 - - - 0 0 8 4 N 1014,0 60 - -
23.03.2017 19:00:00 2,5 1,3 2,8 8,6 9,0 5 3 11 6 E 1012,9 40 3 0,0
23.03.2017 18:00:00 2,4 1,2 3,3 8,6 9,0 8 4 11 6 E 1012,4 20 11 0,6
23.03.2017 17:00:00 2,0 0,8 0,8 8,7 9,0 4 2 22 12 E 1012,2 13 4 1,2
23.03.2017 16:00:00 0,9 0,3 0,2 8,8 9,0 3 2 5 3 E 1012,7 1,2 0 2,0
23.03.2017 15:00:00 0,3 0,0 0,2 8,9 9,0 4 2 5 3 E 1013,2 0,9 0 1,6
23.03.2017 14:00:00 0,4 0,1 0,2 8,9 8,9 0 0 5 3 N 1012,7 1,1 0 1,5
23.03.2017 13:00:00 0,5 0,2 - - - 0 0 16 9 N 1012,1 2,1 - 0,8
23.03.2017 12:00:00 1,2 0,5 0,8 8,9 8,9 8 4 13 7 W 1010,9 3,1 0 3,6
23.03.2017 11:00:00 3,7 2,4 3,7 9,0 8,9 5 3 14 8 N 1008,9 48 0 0,2
23.03.2017 10:00:00 3,3 2,9 3,4 9,0 8,9 5 3 13 7 WNW 1009,5 12 0 0,8
23.03.2017 09:00:00 3,3 3,2 3,6 9,1 8,9 4 2 14 8 NW 1009,0 11 0 0,0
23.03.2017 08:00:00 3,3 3,2 3,4 9,1 8,9 5 3 10 5 W 1008,0 10 0 1,0
23.03.2017 07:00:00 3,5 3,2 3,7 9,2 8,9 8 4 11 6 W 1007,8 10 0 0,0
23.03.2017 06:00:00 3,7 3,4 3,6 9,2 8,9 3 2 11 6 S 1007,6 11 0 0,4
23.03.2017 05:00:00 3,5 3,2 3,7 9,2 8,9 11 6 22 12 WNW 1008,2 10 0 0,0
23.03.2017 04:00:00 4,0 3,1 4,2 9,3 8,9 17 9 26 14 WNW 1008,7 13 0 0,0
23.03.2017 03:00:00 6,8 4,3 5,9 9,3 8,9 7 4 14 8 SE 1007,4 36 0 0,0
23.03.2017 02:00:00 6,5 3,8 - - - 4 2 26 14 WSW 1007,6 35 - -
23.03.2017 01:00:00 6,5 2,8 2,6 9,4 8,9 19 10 28 15 ESE 1006,6 49 0 0,0
23.03.2017 00:00:00 4,8 0,0 1,3 9,4 8,9 11 6 16 9 E 1008,1 56 0 0,0
22.03.2017 23:00:00 5,2 0,6 1,9 9,3 8,9 7 4 15 8 E 1008,9 60 0 0,0
22.03.2017 22:00:00 5,4 0,9 2,1 9,3 8,9 10 5 13 7 E 1009,1 60 0 0,0
22.03.2017 21:00:00 6,1 1,0 0,5 9,2 8,9 8 4 10 5 E 1008,7 60 0 0,0
22.03.2017 20:00:00 8,7 -0,1 - - - 5 3 13 7 SW 1008,3 50 - -
22.03.2017 19:00:00 10,1 0,4 - - - 9 5 21 11 WSW 1008,1 60 - 0,0
22.03.2017 18:00:00 11,6 0,1 12,0 9,1 8,9 9 5 24 13 S 1007,7 59 35 0,0
22.03.2017 17:00:00 11,0 -1,1 13,5 9,0 8,9 15 8 27 15 S 1008,5 60 50 0,0
22.03.2017 16:00:00 10,7 1,0 11,2 9,0 8,9 13 7 25 13 SE 1009,2 60 3 0,0
22.03.2017 15:00:00 9,6 2,4 11,3 8,9 8,9 15 8 27 15 S 1010,1 59 0 0,0
22.03.2017 14:00:00 10,4 1,7 12,5 8,9 8,9 12 7 22 12 S 1010,0 59 26 0,0
22.03.2017 13:00:00 8,7 -0,1 14,3 9,0 8,9 16 8 24 13 S 1011,1 60 60 0,0
22.03.2017 12:00:00 8,6 0,8 13,1 9,0 8,9 9 5 18 10 SE 1011,3 60 60 0,0
22.03.2017 11:00:00 6,6 1,9 7,4 9,1 8,8 11 6 21 12 ESE 1012,2 60 60 0,0
22.03.2017 10:00:00 4,4 1,8 - - - 9 5 18 10 E 1013,0 50 - 0,0
22.03.2017 09:00:00 2,4 0,9 0,2 9,2 8,8 11 6 16 8 E 1013,8 30 54 0,0
22.03.2017 08:00:00 1,0 0,4 0,2 9,3 8,8 13 7 18 10 ESE 1014,8 56 0 0,0
22.03.2017 07:00:00 0,8 0,8 1,0 9,4 8,8 7 4 14 8 ESE 1015,5 14 0 0,0
22.03.2017 06:00:00 1,3 1,3 1,6 9,4 8,8 4 2 8 4 ESE 1015,8 0,7 0 0,0
22.03.2017 05:00:00 1,4 1,3 - - - 0 0 8 4 N 1016,2 0,2 - -
22.03.2017 04:00:00 1,5 1,4 1,9 9,5 8,8 4 2 8 4 NNE 1016,7 0,3 0 0,0
22.03.2017 03:00:00 2,0 1,9 2,4 9,6 8,8 5 3 13 7 NNW 1017,0 2,1 0 0,0
22.03.2017 02:00:00 2,5 2,2 1,6 9,6 8,8 8 4 12 6 NW 1017,4 19 0 0,0
22.03.2017 01:00:00 2,5 2,1 1,4 9,7 8,9 5 3 10 6 W 1017,4 26 0 0,0
22.03.2017 00:00:00 2,9 2,2 1,4 9,7 8,8 7 4 14 8 WNW 1017,0 49 0 0,0
21.03.2017 23:00:00 3,5 2,6 2,5 9,7 8,8 6 3 21 11 WNW 1017,2 60 0 0,0
21.03.2017 22:00:00 4,5 3,3 4,4 9,7 8,8 10 5 18 10 NW 1016,9 60 0 0,2
21.03.2017 21:00:00 5,0 4,6 5,1 9,7 8,8 11 6 26 14 WNW 1016,6 15 0 1,6
21.03.2017 20:00:00 5,8 5,2 - - - 18 10 31 17 WNW 1015,8 35 - -
21.03.2017 19:00:00 7,6 6,1 7,4 9,7 8,8 10 6 20 11 SSW 1014,3 14 0 -
21.03.2017 18:00:00 8,3 5,8 8,4 9,7 8,8 9 5 13 7 SSW 1013,9 58 0 0,0
21.03.2017 17:00:00 8,2 5,5 8,6 9,7 8,8 8 4 16 9 WSW 1014,1 16 0 0,0
21.03.2017 16:00:00 8,7 5,4 - - - 9 5 15 8 W 1014,2 60 - 0,0
21.03.2017 15:00:00 8,6 5,2 9,4 9,7 8,8 4 2 15 8 SW 1014,7 60 0 0,0
21.03.2017 14:00:00 7,2 5,3 7,4 9,7 8,8 9 5 18 10 W 1015,7 17 0 0,0
21.03.2017 13:00:00 6,9 5,7 7,7 9,7 8,8 14 7 20 11 NW 1015,7 8 0 0,0
21.03.2017 12:00:00 8,2 5,1 - - - 9 5 15 8 WNW 1015,5 60 - 0,0
21.03.2017 11:00:00 7,2 5,3 8,7 9,8 8,8 7 4 11 6 NW 1015,5 60 0 0,0
21.03.2017 10:00:00 6,7 6,0 - - - 5 3 13 7 W 1015,5 55 - 0,2
21.03.2017 09:00:00 6,0 5,9 6,2 9,9 8,8 10 5 14 7 W 1016,0 10 0 0,0
21.03.2017 08:00:00 5,9 5,8 6,1 9,9 8,7 7 4 14 8 W 1015,7 5 0 0,0
21.03.2017 07:00:00 6,1 5,8 6,2 9,9 8,7 10 6 17 9 WNW 1015,8 10 0 0,0
21.03.2017 06:00:00 6,5 6,2 6,5 10,0 8,7 8 5 15 8 WNW 1015,8 4,1 0 1,0
21.03.2017 05:00:00 6,7 6,0 6,5 10,0 8,7 6 3 8 4 WSW 1016,1 4,0 0 0,0
21.03.2017 04:00:00 6,9 5,4 6,7 10,0 8,7 4 2 6 3 WSW 1016,7 55 0 0,0
21.03.2017 03:00:00 6,9 4,9 - - - 2 1 5 3 W 1016,9 60 - 0,0
21.03.2017 02:00:00 7,0 4,8 6,7 10,0 8,7 4 2 6 3 NW 1017,3 60 0 0,0
21.03.2017 01:00:00 7,1 4,4 6,7 10,1 8,7 3 1 11 6 SW 1017,6 53 0 0,0
21.03.2017 00:00:00 7,0 5,8 6,9 10,0 8,7 7 4 16 9 W 1017,9 60 0 0,0
20.03.2017 23:00:00 7,2 6,8 7,2 10,0 8,7 11 6 20 11 WNW 1017,5 7 0 0,0
20.03.2017 22:00:00 7,6 6,8 7,7 10,0 8,7 8 4 17 9 WNW 1017,0 16 0 0,0
20.03.2017 21:00:00 8,1 6,4 8,2 10,0 8,7 11 6 18 10 WNW 1016,7 60 0 0,0
20.03.2017 20:00:00 8,4 6,0 8,5 9,9 8,7 12 6 18 10 NNW 1016,4 60 0 0,0
20.03.2017 19:00:00 9,3 6,4 9,9 9,9 8,7 12 7 19 10 NW 1015,8 60 2 0,0
20.03.2017 18:00:00 10,2 6,7 12,0 9,8 8,7 14 7 21 11 WNW 1015,3 60 2 0,0
20.03.2017 17:00:00 10,6 6,9 12,8 9,8 8,7 11 6 17 9 NW 1015,3 60 0 0,0
20.03.2017 16:00:00 10,8 6,9 14,0 9,8 8,7 10 6 18 10 NW 1015,3 58 0 0,0
20.03.2017 15:00:00 10,7 6,8 12,3 9,8 8,7 4 2 13 7 N 1015,6 20 0 0,0
20.03.2017 14:00:00 9,5 6,8 12,1 9,8 8,7 5 3 12 7 NW 1016,4 59 0 0,0
20.03.2017 13:00:00 9,4 6,7 11,5 9,8 8,7 3 2 11 6 W 1016,6 60 0 0,0
20.03.2017 12:00:00 8,9 6,5 10,4 9,8 8,7 3 1 11 6 NNE 1016,9 60 0 0,0
20.03.2017 11:00:00 8,1 6,2 8,7 9,9 8,7 3 2 12 6 W 1017,1 19 0 0,0
20.03.2017 10:00:00 7,8 6,4 - - - 5 3 9 5 NW 1017,3 40 - 0,0
20.03.2017 09:00:00 - - - - - - - - - - - - - -

tt = Température de l'air
td = dewpoint
tt 5cm = Température de l'air 5cm
tt -20cm = Température de l'air -20cm
tt -100cm = Température de l'air -100cm
ff = Vitesse du vent
fx = gusts
dd = Direction du vent
ppp = reduced air pressure
vv = visibility
sd = Ensoleillement
rr = Quantités de précipitations

stations d'obs. à proximité